Fulton, NY

3:24 AM EST on December 11, 2019 (GMT -0500)
Oswego County

Weather History for KFZY - May, 2019

Change the Weather History Date:

Monday, May 6, 2019

  Actual Average (WUND) Record (WUND)
Temperature  
Mean Temperature 62 °F -  
Max Temperature 73 °F - - (-1)
Min Temperature 50 °F - - (-1)
Degree Days  
Heating Degree Days 4    
Growing Degree Days 12 (Base 50)    
Moisture  
Dew Point 44 °F    
Average Humidity 65    
Maximum Humidity 93    
Minimum Humidity 22    
Precipitation  
Precipitation 0.06 in - - ()
Sea Level Pressure  
Sea Level Pressure 29.96 in    
Wind  
Wind Speed 2 mph (WNW)    
Max Wind Speed 8 mph    
Max Gust Speed -    
Visibility 10 miles    
Events Rain    
Averages and records for this station are not official NWS values.
T = Trace of Precipitation, MM = Missing Value Source: NWS Daily Summary

Daily Weather History Graph

Daily Weather History Graph

Search for Another Location

Airport or City:

Astronomy

May. 06, 2019 Rise Set
Actual Time 5:52 AM EDT 8:12 PM EDT
Civil Twilight 5:20 AM EDT 8:44 PM EDT
Nautical Twilight 4:41 AM EDT 9:24 PM EDT
Astronomical Twilight 3:57 AM EDT 10:08 PM EDT
Moon 7:12 AM EDT (5/6) 10:09 PM EDT (5/6)
Length of Visible Light 15h 24m
Length of Day
14h 20m
Waxing Crescent, 3% of the Moon is Illuminated
May 6
Waxing Crescent
May 11
First Quarter
May 18
Full
May 26
Last Quarter
Jun 3
New

Hourly Weather History & Observations

Time (EDT) Temp. Dew Point Humidity Pressure Visibility Wind Dir Wind Speed Gust Speed Precip Events Conditions
12:09 AM 52.0 °F 48.9 °F 89% 29.88 in 10.0 mi WNW 3.5 mph - 0.02 in Rain Light Rain
12:19 AM 52.0 °F 48.0 °F 86% 29.88 in 10.0 mi NW 4.6 mph - 0.03 in Rain Light Rain
12:54 AM 52.0 °F 48.9 °F 89% 29.88 in 10.0 mi Calm Calm - 0.05 in Rain Light Rain
1:54 AM 53.1 °F 48.9 °F 86% 29.88 in 10.0 mi Calm Calm - 0.01 in   Overcast
2:07 AM 53.1 °F 48.9 °F 86% 29.88 in 10.0 mi Calm Calm - 0.00 in   Overcast
2:16 AM 52.0 °F 48.9 °F 89% 29.88 in 10.0 mi Calm Calm - 0.00 in   Overcast
2:54 AM 52.0 °F 48.9 °F 89% 29.89 in 10.0 mi Calm Calm - 0.00 in   Overcast
3:44 AM 52.0 °F 48.9 °F 89% 29.89 in 10.0 mi NW 3.5 mph - N/A   Overcast
3:54 AM 52.0 °F 48.9 °F 89% 29.90 in 10.0 mi Calm Calm - N/A   Overcast
4:54 AM 52.0 °F 48.9 °F 89% 29.91 in 10.0 mi Calm Calm - N/A   Overcast
5:37 AM 52.0 °F 48.9 °F 89% 29.92 in 10.0 mi NW 5.8 mph - N/A   Overcast
5:54 AM 52.0 °F 48.9 °F 89% 29.93 in 10.0 mi NNW 5.8 mph - N/A   Overcast
6:54 AM 50.0 °F 48.0 °F 93% 29.95 in 10.0 mi Calm Calm - N/A   Overcast
7:54 AM 51.1 °F 48.9 °F 92% 29.96 in 10.0 mi WNW 3.5 mph - N/A   Overcast
8:54 AM 51.1 °F 48.0 °F 89% 29.99 in 10.0 mi WSW 3.5 mph - N/A   Mostly Cloudy
9:09 AM 52.0 °F 48.0 °F 86% 29.99 in 10.0 mi West 3.5 mph - N/A   Scattered Clouds
9:54 AM 57.9 °F 46.0 °F 65% 30.00 in 10.0 mi Calm Calm - N/A   Clear
10:54 AM 61.0 °F 44.1 °F 54% 30.01 in 10.0 mi West 3.5 mph - N/A   Clear
11:54 AM 64.0 °F 43.0 °F 46% 30.01 in 10.0 mi Calm Calm - N/A   Clear
12:54 PM 69.1 °F 43.0 °F 39% 30.01 in 10.0 mi NW 4.6 mph - N/A   Clear
1:54 PM 69.1 °F 41.0 °F 36% 30.00 in 10.0 mi West 6.9 mph - N/A   Clear
2:54 PM 70.0 °F 37.9 °F 31% 29.99 in 10.0 mi WNW 6.9 mph - N/A   Clear
3:54 PM 72.0 °F 33.1 °F 24% 29.98 in 10.0 mi Variable 3.5 mph - N/A   Clear
4:54 PM 73.0 °F 32.0 °F 22% 29.97 in 10.0 mi WNW 8.1 mph - N/A   Clear
5:54 PM 71.1 °F 33.1 °F 25% 29.98 in 10.0 mi WNW 4.6 mph - N/A   Clear
6:54 PM 71.1 °F 33.1 °F 25% 29.99 in 10.0 mi Calm Calm - N/A   Clear
7:54 PM 64.9 °F 37.0 °F 36% 29.99 in 10.0 mi Calm Calm - N/A   Clear
8:54 PM 61.0 °F 37.9 °F 42% 30.01 in 10.0 mi Calm Calm - N/A   Clear
9:54 PM 60.1 °F 42.1 °F 51% 30.02 in 10.0 mi South 3.5 mph - N/A   Mostly Cloudy
10:54 PM 60.1 °F 41.0 °F 49% 30.02 in 10.0 mi Calm Calm - N/A   Overcast
11:54 PM 62.1 °F 43.0 °F 50% 30.04 in 10.0 mi SW 3.5 mph - 0.00 in Rain Light Rain